Terminal Aerodrome Forecast
Issued by NWS

Home | Current Version | Previous Version | Graphics & Text | Print | Product List | Glossary On
Versions: 1 2 3 4 5 6 7 8 9 10 11 12 13 14 15 16 17 18 19 20 21 22 23 24 25 26 27 28 29 30 31 32 33 34 35 36 37 38 39 40 41 42 43 44 45 46 47 48 49 50
000
FTUS43 KLOT 181700 RRA
TAFGYY
TAF
KGYY 181742Z 1818/1918 36011G16KT P6SM -RA BKN020 OVC025
     FM182200 36012KT P6SM BKN030
     FM190200 36008KT P6SM BKN040
     FM190900 36003KT P6SM FEW040
     FM191300 VRB03KT P6SM FEW200
     FM191600 23008KT P6SM FEW250=

USA.gov is the U.S. government's official web portal to all federal, state and local government web resources and services.